Location: Berlin
(52.5170°N, 13.3889°E)
Time: 21:38:10
(UTC+02:00)

LES 1 - Pass Details

Date: 24 June 2025
Orbit: 2779 x 2808 km, 32.1° (Epoch: 12 July)

Event Time Altitude Azimuth Distance (km) Brightness Sun altitude
Rises 03:05:30 0° 265° (W) 6,576 12.0 -9.9°
Reaches altitude 10° 03:10:47 10° 254° (WSW) 5,556 11.5 -9.6°
Maximum altitude 03:22:24 25° 206° (SSW) 4,401 10.8 -8.7°
Drops below altitude 10° 03:34:05 10° 157° (SSE) 5,564 11.6 -7.7°
Sets 03:39:26 0° 145° (SE) 6,586 12.1 -7.3°
